TimeEDT,TemperatureF,Dew PointF,Humidity,Sea Level PressureIn,VisibilityMPH,Wind Direction,Wind SpeedMPH,Gust SpeedMPH,PrecipitationIn,Events,Conditions,WindDirDegrees,DateUTC
12:53 AM,62.1,57.0,84,29.88,10.0,Calm,Calm,-,0.01,Rain,Light Rain,0,2013-09-05 04:53:00
1:53 AM,61.0,57.9,90,29.87,10.0,Calm,Calm,-,0.00,,Overcast,0,2013-09-05 05:53:00
2:53 AM,60.1,59.0,96,29.86,10.0,Calm,Calm,-,N/A,,Mostly Cloudy,0,2013-09-05 06:53:00
3:53 AM,60.1,57.9,93,29.86,10.0,Calm,Calm,-,0.01,Rain,Light Rain,0,2013-09-05 07:53:00
4:53 AM,57.0,54.0,89,29.89,4.0,North,11.5,-,0.07,Rain,Rain,350,2013-09-05 08:53:00
5:08 AM,55.4,55.4,100,29.89,2.5,North,10.4,-,0.07,Rain,Heavy Rain,360,2013-09-05 09:08:00
5:19 AM,55.4,55.4,100,29.90,3.0,North,4.6,-,0.12,Rain,Rain,10,2013-09-05 09:19:00
5:28 AM,55.4,55.4,100,29.91,3.0,NE,5.8,-,0.15,Rain,Rain,40,2013-09-05 09:28:00
5:32 AM,55.4,55.4,100,29.91,3.0,NNE,8.1,-,0.17,Rain,Rain,30,2013-09-05 09:32:00
5:53 AM,55.0,53.1,93,29.92,4.0,NE,9.2,-,0.23,Rain,Rain,40,2013-09-05 09:53:00
6:33 AM,53.6,53.6,100,29.93,6.0,ENE,4.6,-,0.03,Rain,Light Rain,70,2013-09-05 10:33:00
6:53 AM,54.0,52.0,93,29.94,10.0,NE,3.5,-,0.03,,Overcast,50,2013-09-05 10:53:00
7:53 AM,55.0,53.1,93,29.96,10.0,NNW,5.8,-,0.00,Rain,Light Rain,340,2013-09-05 11:53:00
8:53 AM,55.0,51.1,86,29.97,10.0,North,6.9,-,0.01,,Overcast,10,2013-09-05 12:53:00
9:53 AM,55.0,48.9,80,29.98,10.0,North,5.8,-,0.00,,Mostly Cloudy,360,2013-09-05 13:53:00
10:53 AM,57.9,45.0,62,29.98,10.0,North,8.1,-,N/A,,Partly Cloudy,10,2013-09-05 14:53:00
11:53 AM,61.0,44.1,54,29.98,10.0,North,11.5,17.3,N/A,,Partly Cloudy,10,2013-09-05 15:53:00
12:53 PM,62.1,43.0,50,29.98,10.0,Variable,4.6,-,N/A,,Partly Cloudy,0,2013-09-05 16:53:00
1:53 PM,64.0,42.1,45,29.97,10.0,NW,3.5,-,N/A,,Scattered Clouds,320,2013-09-05 17:53:00
2:53 PM,63.0,42.1,46,29.97,10.0,NNW,4.6,-,N/A,,Mostly Cloudy,330,2013-09-05 18:53:00
3:53 PM,64.0,37.0,37,29.98,10.0,WNW,10.4,-,N/A,,Mostly Cloudy,300,2013-09-05 19:53:00
4:53 PM,64.9,39.0,39,30.00,10.0,NW,11.5,-,N/A,,Mostly Cloudy,320,2013-09-05 20:53:00
5:53 PM,62.1,37.9,41,30.02,10.0,NNW,8.1,-,N/A,,Clear,330,2013-09-05 21:53:00
6:53 PM,59.0,41.0,51,30.04,10.0,NW,4.6,-,N/A,,Mostly Cloudy,310,2013-09-05 22:53:00
7:53 PM,55.0,39.9,57,30.07,10.0,NW,5.8,-,N/A,,Clear,310,2013-09-05 23:53:00
8:53 PM,52.0,39.9,63,30.10,10.0,NW,6.9,-,N/A,,Clear,320,2013-09-06 00:53:00
9:53 PM,51.1,39.9,66,30.13,10.0,NNW,5.8,-,N/A,,Clear,330,2013-09-06 01:53:00
10:53 PM,50.0,39.9,68,30.14,10.0,NW,5.8,-,N/A,,Clear,310,2013-09-06 02:53:00
11:53 PM,50.0,39.0,66,30.14,10.0,NW,5.8,-,N/A,,Clear,310,2013-09-06 03:53:00